Location: Clarion
(42.7316°N, 93.7330°W)
Time: 08:32:31
(UTC+00:00)

Cosmos 1733 Rocket - Pass Details

Date: 22 April 2026
Orbit: 597 x 620 km, 82.5° (Epoch: 16 May)

Event Time Altitude Azimuth Distance (km) Brightness Sun altitude
Rises 01:42:13 0° 174° (S) 2,860 6.2 -7.4°
Reaches altitude 10° 01:44:27 10° 169° (S) 1,964 5.3 -7.7°
Maximum altitude 01:48:40 51° 94° (E) 773 3.2 -8.4°
Drops below altitude 10° 01:52:57 10° 18° (NNE) 1,990 5.8 -9.1°
Sets 01:55:13 0° 14° (NNE) 2,903 6.7 -9.5°
